Weather History for St. Thomas, VI

Change the Weather History Date:

Monday, November 18, 2013

  Actual Average Record
Temperature  
Mean Temperature 80 °F 81 °F  
Max Temperature 85 °F 87 °F 91 °F (1994)
Min Temperature 74 °F 75 °F 68 °F (1954)
Degree Days  
Heating Degree Days 0 0  
Month to date heating degree days 0 0  
Since 1 July heating degree days 0 0  
Cooling Degree Days 15 16  
Month to date cooling degree days 301 296  
Year to date cooling degree days 5360 5407  
Growing Degree Days 30 (Base 50)    
Moisture  
Dew Point 70 °F    
Average Humidity 72    
Maximum Humidity 88    
Minimum Humidity 55    
Precipitation  
Precipitation 0.00 in 0.19 in 0.69 in (2009)
Month to date precipitation 5.89 3.50  
Year to date precipitation 42.60 34.65  
Sea Level Pressure  
Sea Level Pressure 29.80 in    
Wind  
Wind Speed 10 mph (ENE)    
Max Wind Speed 18 mph    
Max Gust Speed 26 mph    
Visibility 10 miles    
Events Rain    
T = Trace of Precipitation, MM = Missing Value Source: NWS Daily Summary

Daily Weather History Graph

Daily Weather History Graph

Search for Another Location

Airport:

Trip Planner

Search our weather history database for the weather conditions in past years. The results will help you decide how hot, cold, wet, or windy it might be!

Date:

Astronomy

Nov. 18, 2013 Rise Set
Actual Time 6:28 AM AST 5:42 PM AST
Civil Twilight 6:04 AM AST 6:05 PM AST
Nautical Twilight 5:38 AM AST 6:31 PM AST
Astronomical Twilight 5:12 AM AST 6:57 PM AST
Moon 6:43 PM AST (11/18) 7:11 AM AST (11/18)
Length of Visible Light 12h 00m
Length of Day
11h 14m
Full, 99% of the Moon is Illuminated
Nov 18
Full
Nov 25
Last Quarter
Dec 2
New
Dec 9
First Quarter
Dec 17
Full

Hourly Weather History & Observations

Time (AST) Temp. Heat Index Dew Point Humidity Pressure Visibility Wind Dir Wind Speed Gust Speed Precip Events Conditions
12:53 AM 78.1 °F - 72.0 °F 81% 29.81 in 10.0 mi East 9.2 mph 18.4 mph N/A   Mostly Cloudy
1:25 AM 77.0 °F - 73.4 °F 89% - 10.0 mi ENE 12.7 mph 24.2 mph N/A   Overcast
1:53 AM 77.0 °F - 73.0 °F 88% 29.79 in 10.0 mi NE 16.1 mph 27.6 mph N/A   Overcast
2:00 AM 77.0 °F - 73.4 °F 89% - 10.0 mi ENE 18.4 mph 26.5 mph N/A   Overcast
2:53 AM 77.0 °F - 71.1 °F 82% 29.78 in 10.0 mi ENE 9.2 mph - N/A   Overcast
3:53 AM 75.9 °F - 72.0 °F 87% 29.78 in 10.0 mi ENE 15.0 mph - 0.00 in   Overcast
4:53 AM 75.0 °F - 71.1 °F 87% 29.78 in 7.0 mi East 10.4 mph 17.3 mph 0.04 in Rain Light Rain
5:53 AM 79.0 °F - 69.1 °F 72% 29.79 in 10.0 mi East 18.4 mph 28.8 mph 0.00 in   Overcast
6:53 AM 80.1 °F 82.3 °F 66.9 °F 64% 29.80 in 10.0 mi North 13.8 mph 25.3 mph N/A   Overcast
7:53 AM 82.0 °F 84.9 °F 68.0 °F 62% 29.82 in 10.0 mi ENE 9.2 mph - N/A   Overcast
8:53 AM 82.0 °F 84.5 °F 66.9 °F 60% 29.84 in 10.0 mi East 16.1 mph 25.3 mph N/A   Mostly Cloudy
9:53 AM 82.9 °F 86.5 °F 69.1 °F 63% 29.84 in 10.0 mi East 9.2 mph 24.2 mph N/A   Scattered Clouds
10:53 AM 84.0 °F 87.8 °F 69.1 °F 61% 29.84 in 10.0 mi East 11.5 mph 23.0 mph N/A   Partly Cloudy
11:53 AM 84.0 °F 89.0 °F 71.1 °F 65% 29.83 in 10.0 mi East 10.4 mph 17.3 mph N/A   Unknown
12:53 PM - - - N/A% 29.80 in - North - - N/A   Unknown
2:53 PM 82.9 °F 86.5 °F 69.1 °F 63% 29.76 in 10.0 mi East 12.7 mph 24.2 mph N/A   Mostly Cloudy
3:53 PM 82.9 °F 84.6 °F 64.9 °F 54% 29.76 in 10.0 mi East 6.9 mph 20.7 mph N/A   Clear
4:53 PM 82.0 °F 85.5 °F 69.1 °F 65% 29.76 in 10.0 mi East 4.6 mph - N/A   Unknown
5:53 PM 80.1 °F 82.7 °F 68.0 °F 67% 29.77 in 10.0 mi ENE 6.9 mph 19.6 mph N/A   Scattered Clouds
6:53 PM 80.1 °F 82.7 °F 68.0 °F 67% 29.78 in 10.0 mi Calm Calm - N/A   Unknown
7:53 PM 80.1 °F 82.9 °F 69.1 °F 69% 29.80 in 10.0 mi NE 9.2 mph - N/A   Clear
8:53 PM 80.1 °F 82.7 °F 68.0 °F 67% 29.81 in 10.0 mi NE 8.1 mph - N/A   Clear
9:53 PM 79.0 °F - 70.0 °F 74% 29.82 in 10.0 mi ENE 8.1 mph 26.5 mph N/A   Unknown
10:53 PM 78.1 °F - 70.0 °F 76% 29.83 in 10.0 mi East 8.1 mph - N/A   Mostly Cloudy
11:53 PM 79.0 °F - 68.0 °F 69% 29.82 in 10.0 mi ENE 5.8 mph - N/A   Partly Cloudy